Location: Bo?a Wola
(50.4192°N, 19.7966°E)
Time: 21:09:59
(UTC+00:00)

Cosmos 2263 Rocket - Visible Passes

Search period start: 19 September 2024 00:00
Search period end: 29 September 2024 00:00
Orbit: 821 x 849 km, 71.0° (Epoch: 18 September)

Date Brightness Start Highest point End Pass type
(mag) Time Alt. Az. Time Alt. Az. Time Alt. Az.
19 Sep 4.9 02:43:42 10° SE 02:46:55 16° E 02:50:09 10° ENE visible
20 Sep 4.9 02:27:05 10° SE 02:29:58 14° E 02:32:53 10° ENE visible
21 Sep 4.9 02:10:30 10° ESE 02:13:01 13° E 02:15:32 10° ENE visible
21 Sep 2.5 03:50:19 10° SSW 03:55:55 74° ESE 04:01:36 10° NNE visible
22 Sep 5.0 01:54:03 10° ESE 01:56:05 12° E 01:58:07 10° ENE visible
22 Sep 2.6 03:33:19 10° SSW 03:38:54 69° ESE 03:44:33 10° NNE visible
23 Sep 5.0 01:37:47 10° ESE 01:39:08 11° E 01:40:29 10° E visible
23 Sep 2.7 03:16:20 10° SSW 03:21:53 64° ESE 03:27:30 10° NE visible
24 Sep 2.8 02:59:22 10° S 03:04:53 59° ESE 03:10:28 10° NE visible
25 Sep 2.8 02:42:24 10° S 02:47:52 55° ESE 02:53:24 10° NE visible
26 Sep 2.9 02:26:02 13° S 02:30:52 51° ESE 02:36:21 10° NE visible
27 Sep 3.0 02:10:10 19° S 02:13:51 47° ESE 02:19:17 10° NE visible
27 Sep 2.8 03:52:40 10° WSW 03:57:55 38° NW 04:03:13 10° NNE visible
28 Sep 3.1 01:54:13 26° SSE 01:56:52 43° ESE 02:02:12 10° NE visible
28 Sep 2.8 03:35:55 12° WSW 03:40:50 40° NW 03:46:13 10° NNE visible
